Location: Forli
(44.2227°N, 12.0407°E)
Time: 15:56:57
(UTC+01:00)

Tiangong - Pass Details

Date: 18 February 2026
Orbit: 382 x 391 km, 41.5° (Epoch: 5 March)

Event Time Altitude Azimuth Distance (km) Brightness Sun altitude
Rises 19:50:57 0° 271° (W) 2,255 3.2 -23.2°
Reaches altitude 10° 19:53:16 10° 257° (WSW) 1,398 1.6 -23.6°
Enters shadow 19:55:02 21° 226° (SW) 922 0.1 -23.9°
